sat.trackr.live / text

‹ back to catalog

STARLINK-4375

NORAD 53192 · 2022-084D

PAYLOAD ACTIVE UNKNOWN

§ Identity

Operator
Country
US
Launch date
2022-07-22
Launch site
AFWTR
Launch vehicle
Mass (kg)
RCS (m²)

Purposes: comms

External: N2YO · Heavens-Above · Gunter

§ Orbital elements

Epoch: 2026-09-19T22:11:17.206944Z

Period
93.91 min
Inclination
97.2846°
Eccentricity
0.0001315
Mean motion
15.33439975 rev/d
Perigee alt
464.7 km
Apogee alt
466.5 km
Semi-major
6,843.7 km
B*
2.0264e-4
RAAN
318.5811°
Arg perigee
77.2377°
Mean anomaly
282.9013°
Rev number
22,932

§ Raw data

STARLINK-43751 53192U 22084D   26262.92450471  .00006472  00000+0  20264-3 0  99912 53192  97.2846 318.5811 0001315  77.2377 282.9013 15.33439975229320

JSON: /api/v1/satellites/53192 · /tle

For live sub-satellite position, see the globe view (requires WebGL).

§ Visibility from observer

Set your observer location to see the next 7 days of passes ≥ 10°. The values pass through the URL so the page stays shareable.

No JS? Fill the form by hand. The geolocation button needs JavaScript.